Montpelier, VT

9:57 PM EDT on October 19, 2019 (GMT -0400)
Knapp State

Weather History for KMPV - August, 2019

Change the Weather History Date:

Saturday, August 24, 2019

  Actual Average Record
Temperature  
Mean Temperature 56 °F 64 °F  
Max Temperature 68 °F 76 °F 86 °F (1950)
Min Temperature 45 °F 53 °F 40 °F (1965)
Degree Days  
Heating Degree Days 8 3  
Month to date heating degree days 35 46  
Since 1 June heating degree days 188 207  
Since 1 July heating degree days 44 86  
Cooling Degree Days 0 2  
Month to date cooling degree days 46 64  
Year to date cooling degree days 204 232  
Since 1 June cooling degree days 203 222  
Growing Degree Days 6 (Base 50)    
Moisture  
Dew Point 50 °F    
Average Humidity 85    
Maximum Humidity 100    
Minimum Humidity 61    
Precipitation  
Precipitation 0.00 in 0.11 in 1.56 in (1998)
Month to date precipitation 3.91 3.30  
Year to date precipitation 34.46 24.09  
Sea Level Pressure  
Sea Level Pressure 30.28 in    
Wind  
Wind Speed 2 mph ()    
Max Wind Speed 12 mph    
Max Gust Speed 16 mph    
Visibility 10.0 miles    
Events      
T = Trace of Precipitation, MM = Missing Value Source: Averaged Metar Reports

Daily Weather History Graph

Daily Weather History Graph

Search for Another Location

Airport or City:

Astronomy

Aug. 24, 2019 Rise Set
Actual Time 6:03 AM EDT 7:40 PM EDT
Civil Twilight 5:33 AM EDT 8:11 PM EDT
Nautical Twilight 4:56 AM EDT 8:48 PM EDT
Astronomical Twilight 4:16 AM EDT 9:27 PM EDT
Moon No Moon Rise 2:59 PM EDT (8/24)
Length of Visible Light 14h 37m
Length of Day
13h 36m
Last Quarter, 39% of the Moon is Illuminated
Aug 24
Last Quarter
Aug 30
New
Sep 5
First Quarter
Sep 14
Full
Sep 21
Last Quarter

Hourly Weather History & Observations

Time (EDT) Temp. Dew Point Humidity Pressure Visibility Wind Dir Wind Speed Gust Speed Precip Events Conditions
12:51 AM 51.1 °F 48.0 °F 89% 30.15 in 10.0 mi Calm Calm - N/A   Clear
1:51 AM 48.9 °F 46.0 °F 90% 30.16 in 10.0 mi Calm Calm - N/A   Clear
2:51 AM 46.9 °F 45.0 °F 93% 30.18 in 10.0 mi Calm Calm - N/A   Clear
3:51 AM 46.9 °F 46.0 °F 97% 30.19 in 10.0 mi Calm Calm - N/A   Clear
4:51 AM 46.0 °F 45.0 °F 96% 30.20 in 10.0 mi Calm Calm - N/A   Clear
5:51 AM 45.0 °F 44.1 °F 97% 30.22 in 10.0 mi Calm Calm - N/A   Clear
6:44 AM 46.0 °F 45.0 °F 96% 30.23 in 10.0 mi Calm Calm - N/A   Partly Cloudy
6:51 AM 46.9 °F 46.0 °F 97% 30.25 in 10.0 mi Calm Calm - N/A   Scattered Clouds
7:02 AM 46.9 °F 46.0 °F 97% 30.24 in 10.0 mi Calm Calm - N/A   Mostly Cloudy
7:51 AM 50.0 °F 48.9 °F 96% 30.27 in 10.0 mi Calm Calm - N/A   Overcast
8:51 AM 54.0 °F 52.0 °F 93% 30.28 in 10.0 mi North 3.5 mph - N/A   Overcast
9:51 AM 55.9 °F 50.0 °F 80% 30.29 in 10.0 mi ENE 4.6 mph - N/A   Overcast
10:51 AM 59.0 °F 52.0 °F 78% 30.29 in 10.0 mi Variable 5.8 mph - N/A   Overcast
11:51 AM 60.1 °F 52.0 °F 75% 30.30 in 10.0 mi NE 8.1 mph - N/A   Overcast
12:51 PM 60.1 °F 52.0 °F 75% 30.30 in 10.0 mi North 6.9 mph - N/A   Overcast
1:51 PM 63.0 °F 53.1 °F 70% 30.30 in 10.0 mi NNE 8.1 mph - N/A   Overcast
2:51 PM 62.1 °F 53.1 °F 72% 30.31 in 10.0 mi NNW 5.8 mph - N/A   Overcast
3:05 PM 64.9 °F 55.0 °F 70% 30.29 in 10.0 mi NW 8.1 mph - N/A   Scattered Clouds
3:51 PM 66.0 °F 53.1 °F 63% 30.30 in 10.0 mi NNE 8.1 mph - N/A   Overcast
4:51 PM 66.9 °F 53.1 °F 61% 30.30 in 10.0 mi NNW 9.2 mph - N/A   Partly Cloudy
5:51 PM 66.0 °F 53.1 °F 63% 30.31 in 10.0 mi NNE 8.1 mph - N/A   Mostly Cloudy
6:51 PM 64.9 °F 54.0 °F 68% 30.32 in 10.0 mi NNW 4.6 mph - N/A   Clear
7:51 PM 59.0 °F 55.0 °F 87% 30.33 in 10.0 mi Calm Calm - N/A   Clear
8:51 PM 55.9 °F 54.0 °F 93% 30.36 in 10.0 mi Calm Calm - N/A   Scattered Clouds
9:51 PM 55.9 °F 54.0 °F 93% 30.37 in 10.0 mi Calm Calm - N/A   Mostly Cloudy
10:51 PM 53.1 °F 52.0 °F 96% 30.38 in 10.0 mi Calm Calm - N/A   Clear
11:51 PM 52.0 °F 51.1 °F 97% 30.39 in 10.0 mi Calm Calm - N/A   Clear